Regional Weather Roundup
Issued by NWS Little Rock, AR

Home | Current Version | Previous Version | Graphics & Text | Print | Product List | Glossary On
Versions: 1 2 3 4 5 6 7 8 9 10 11 12 13 14 15 16 17 18 19 20 21 22 23 24 25 26 27 28 29 30 31 32 33 34 35 36 37 38 39 40 41 42 43 44 45 46 47 48 49 50
000
ASUS44 KLZK 191305
RWRLZK

WEATHER ROUNDUP FOR ARKANSAS
NATIONAL WEATHER SERVICE LITTLE ROCK AR
800 AM CDT FRI SEP 19 2014

NOTE: "FAIR" INDICATES FEW OR NO CLOUDS BELOW 12,000 FEET WITH NO
SIGNIFICANT WEATHER AND/OR OBSTRUCTIONS TO VISIBILITY.

ARZ001-003-010-029-191400-
NORTHWEST ARKANSAS

CITY           SKY/WX    TMP DP  RH WIND       PRES   REMARKS
FAYETTEVILLE   CLOUDY    62  62 100 CALM      30.04R FOG
FORT SMITH     CLOUDY    69  64  84 E3        30.02R
HARRISON       FOG       62  62 100 SE10      30.07R VSB 1
BENTONVILLE    MOSUNNY   64  61  88 SE3       30.05R
ROGERS         CLOUDY    64  62  93 E6        30.05R FOG
SILOAM SPGS    CLOUDY    64  59  82 E5        30.05R
HIGHFILL       CLOUDY    64  63  96 SE3       30.04R
SPRINGDALE     SUNNY     64  63  94 E6        30.06R FOG
$$

ARZ004-005-016-191400-
NORTH CENTRAL ARKANSAS

CITY           SKY/WX    TMP DP  RH WIND       PRES   REMARKS
BATESVILLE     MOSUNNY   63  63 100 CALM      30.04S
FLIPPIN        SUNNY     63  57  82 CALM      30.06R
MTN HOME       CLOUDY    60  59  96 CALM      30.06R FOG
$$

ARZ040-041-191400-
WEST CENTRAL ARKANSAS

CITY           SKY/WX    TMP DP  RH WIND       PRES   REMARKS
MENA           CLOUDY    70  68  94 CALM      30.03R
MOUNT IDA      CLOUDY    69  66  90 CALM      30.01R FOG
$$

ARZ009-017-025-026-028-191400-
NORTHEAST ARKANSAS

CITY           SKY/WX    TMP DP  RH WIND       PRES   REMARKS
CORNING          N/A     59  57  94 NE6       30.06R FOG
JONESBORO      SUNNY     64  60  87 NE8       30.03S
NEWPORT        CLOUDY    65  63  93 N8        30.04S
WALNUT RIDGE   SUNNY     63  57  82 NE6       30.04S
BLYTHEVILLE    SUNNY     64  61  90 E5        30.04R
$$

ARZ022-023-033-042-044-191400-
CENTRAL ARKANSAS

CITY           SKY/WX    TMP DP  RH WIND       PRES   REMARKS
LITTLE ROCK    CLOUDY    69  63  81 NE5       30.02R
N LITTLE ROCK    N/A     67  65  93 NE6       30.02R
JACKSONVILLE   PTSUNNY   67  64  89 NE2       30.03R
SEARCY         CLOUDY    67  63  87 NE6       30.04R
HOT SPRINGS    CLOUDY    68  64  87 E7        30.02R
RUSSELLVILLE   MOSUNNY   67  65  93 CALM      30.02S
CLINTON        FAIR      66  64  94 CALM      30.05S FOG
$$

ARZ036-191400-
EAST ARKANSAS

CITY           SKY/WX    TMP DP  RH WIND       PRES   REMARKS
WEST MEMPHIS   FOG       66  66 100 NE6       30.01  VSB 1/4
$$

ARZ050-053-066-070-073-191400-
SOUTHWEST ARKANSAS

CITY           SKY/WX    TMP DP  RH WIND       PRES   REMARKS
ARKADELPHIA    CLOUDY    69  68  97 NE7       30.01R FOG
CAMDEN         CLOUDY    68  66  94 NE5       29.99R FOG
TEXARKANA      CLOUDY    69  69 100 NE6       29.98R FOG
EL DORADO      CLOUDY    68  67  96 N5        29.98R FOG
DE QUEEN       CLOUDY    69  67  93 E9        29.98R FOG
$$

ARZ056-057-069-191400-
SOUTHEAST ARKANSAS

CITY           SKY/WX    TMP DP  RH WIND       PRES   REMARKS
PINE BLUFF     FOG       67  66  97 N6        30.01R VSB 1/2
STUTTGART      CLOUDY    66  63  88 N6        30.02S VSB<1/4
MONTICELLO     CLOUDY    69  67  93 NE5       29.99R FOG

$$




USA.gov is the U.S. government's official web portal to all federal, state and local government web resources and services.